Time,TemperatureF,DewpointF,PressureIn,WindDirection,WindDirectionDegrees,WindSpeedMPH,WindSpeedGustMPH,Humidity,HourlyPrecipIn,Conditions,Clouds,dailyrainin,SoftwareType,DateUTC
2013-04-11 00:02:00,28.0,25.0,30.07,NNW,342,3.0,7.0,87,0.00,,,0.01,,2013-04-11 05:02:00,
2013-04-11 00:13:00,28.0,25.0,30.07,NNW,342,3.0,7.0,87,0.00,,,0.01,,2013-04-11 05:13:00,
2013-04-11 00:22:00,28.0,24.0,30.07,NNE,13,3.0,6.0,86,0.00,,,0.01,,2013-04-11 05:22:00,
2013-04-11 00:32:00,28.0,25.0,30.06,NW,322,1.0,5.0,87,0.00,,,0.01,,2013-04-11 05:32:00,
2013-04-11 00:42:00,28.0,25.0,30.06,NW,322,1.0,5.0,87,0.00,,,0.01,,2013-04-11 05:42:00,
2013-04-11 00:52:00,28.0,25.0,30.07,NNE,29,3.0,5.0,87,0.00,,,0.01,,2013-04-11 05:52:00,
2013-04-11 01:02:00,28.0,25.0,30.06,NNE,20,2.0,4.0,87,0.00,,,0.01,,2013-04-11 06:02:00,
2013-04-11 01:12:00,28.0,25.0,30.06,NNE,20,2.0,4.0,87,0.00,,,0.01,,2013-04-11 06:12:00,
2013-04-11 01:22:00,28.0,25.0,30.06,NNE,29,2.0,4.0,87,0.00,,,0.01,,2013-04-11 06:22:00,
2013-04-11 01:32:00,28.0,25.0,30.06,North,4,1.0,3.0,88,0.00,,,0.01,,2013-04-11 06:32:00,
2013-04-11 01:42:00,28.0,25.0,30.06,North,4,1.0,3.0,88,0.00,,,0.01,,2013-04-11 06:42:00,
2013-04-11 01:52:00,28.0,25.0,30.05,NNE,30,2.0,5.0,87,0.00,,,0.01,,2013-04-11 06:52:00,
2013-04-11 02:02:00,28.0,24.0,30.05,NNW,342,2.0,5.0,86,0.00,,,0.01,,2013-04-11 07:02:00,
2013-04-11 02:12:00,28.0,24.0,30.05,NNW,342,2.0,5.0,86,0.00,,,0.01,,2013-04-11 07:12:00,
2013-04-11 02:22:00,28.0,25.0,30.04,NNW,338,2.0,4.0,87,0.00,,,0.01,,2013-04-11 07:22:00,
2013-04-11 02:32:00,28.0,24.0,30.04,North,359,3.0,5.0,86,0.00,,,0.01,,2013-04-11 07:32:00,
2013-04-11 02:42:00,28.0,24.0,30.04,North,359,3.0,5.0,86,0.00,,,0.01,,2013-04-11 07:42:00,
2013-04-11 02:52:00,28.0,24.0,30.03,North,359,2.0,5.0,86,0.00,,,0.01,,2013-04-11 07:52:00,
2013-04-11 03:02:00,28.0,24.0,30.03,NNW,331,3.0,6.0,86,0.00,,,0.01,,2013-04-11 08:02:00,
2013-04-11 03:12:00,28.0,24.0,30.03,NNW,331,3.0,6.0,86,0.00,,,0.01,,2013-04-11 08:12:00,
2013-04-11 03:22:00,28.0,25.0,30.02,NNE,26,3.0,6.0,87,0.00,,,0.01,,2013-04-11 08:22:00,
2013-04-11 03:32:00,28.0,25.0,30.00,NNW,346,2.0,6.0,88,0.00,,,0.01,,2013-04-11 08:32:00,
2013-04-11 03:42:00,28.0,25.0,30.00,NNW,346,2.0,6.0,88,0.00,,,0.01,,2013-04-11 08:42:00,
2013-04-11 03:52:00,28.0,25.0,29.99,NNE,16,4.0,5.0,88,0.00,,,0.01,,2013-04-11 08:52:00,
2013-04-11 04:02:00,29.0,25.0,29.99,NNE,27,3.0,6.0,85,0.00,,,0.01,,2013-04-11 09:02:00,
2013-04-11 04:12:00,29.0,25.0,29.99,NNE,27,3.0,6.0,85,0.00,,,0.01,,2013-04-11 09:12:00,
2013-04-11 04:22:00,29.0,25.0,29.98,ENE,65,1.0,6.0,85,0.00,,,0.01,,2013-04-11 09:22:00,
2013-04-11 04:33:00,30.0,25.0,29.97,ENE,63,4.0,6.0,80,0.00,,,0.01,,2013-04-11 09:33:00,
2013-04-11 04:43:00,30.0,25.0,29.97,ENE,63,4.0,6.0,80,0.00,,,0.01,,2013-04-11 09:43:00,
2013-04-11 04:52:00,31.0,24.0,29.98,East,86,5.0,7.0,76,0.00,,,0.01,,2013-04-11 09:52:00,
2013-04-11 05:02:00,31.0,23.0,29.97,ENE,73,6.0,8.0,72,0.00,,,0.01,,2013-04-11 10:02:00,
2013-04-11 05:12:00,32.0,23.0,29.97,ENE,67,8.0,13.0,70,0.00,,,0.01,,2013-04-11 10:12:00,
2013-04-11 05:23:00,32.0,23.0,29.97,ENE,67,8.0,13.0,70,0.00,,,0.01,,2013-04-11 10:23:00,
2013-04-11 05:32:00,32.0,24.0,29.96,ENE,61,5.0,9.0,72,0.00,,,0.01,,2013-04-11 10:32:00,
2013-04-11 05:42:00,32.0,24.0,29.96,ENE,61,5.0,9.0,72,0.00,,,0.01,,2013-04-11 10:42:00,
2013-04-11 05:52:00,31.0,24.0,29.95,ENE,70,4.0,7.0,74,0.00,,,0.01,,2013-04-11 10:52:00,
2013-04-11 06:02:00,31.0,24.0,29.95,ENE,70,4.0,7.0,74,0.00,,,0.01,,2013-04-11 11:02:00,
2013-04-11 06:12:00,31.0,24.0,29.95,ENE,71,4.0,6.0,75,0.00,,,0.01,,2013-04-11 11:12:00,
2013-04-11 06:23:00,31.0,24.0,29.94,ENE,58,4.0,5.0,75,0.00,,,0.01,,2013-04-11 11:23:00,
2013-04-11 06:32:00,31.0,24.0,29.94,ENE,71,5.0,7.0,74,0.00,,,0.01,,2013-04-11 11:32:00,
2013-04-11 06:42:00,31.0,24.0,29.94,ENE,71,5.0,7.0,74,0.00,,,0.01,,2013-04-11 11:42:00,
2013-04-11 06:52:00,30.0,23.0,29.94,ENE,70,1.0,4.0,76,0.00,,,0.01,,2013-04-11 11:52:00,
2013-04-11 07:02:00,30.0,24.0,29.93,NE,53,2.0,4.0,77,0.00,,,0.01,,2013-04-11 12:02:00,
2013-04-11 07:12:00,30.0,24.0,29.93,NE,53,2.0,4.0,77,0.00,,,0.01,,2013-04-11 12:12:00,
2013-04-11 07:22:00,30.0,25.0,29.93,ENE,61,2.0,5.0,80,0.00,,,0.01,,2013-04-11 12:22:00,
2013-04-11 07:32:00,30.0,24.0,29.93,NE,40,3.0,7.0,79,0.00,,,0.01,,2013-04-11 12:32:00,
2013-04-11 07:42:00,30.0,24.0,29.93,NE,40,3.0,7.0,79,0.00,,,0.01,,2013-04-11 12:42:00,
2013-04-11 07:52:00,30.0,24.0,29.92,NE,46,4.0,8.0,77,0.00,,,0.01,,2013-04-11 12:52:00,
2013-04-11 08:02:00,30.0,23.0,29.93,ENE,66,8.0,10.0,74,0.00,,,0.01,,2013-04-11 13:02:00,
2013-04-11 08:12:00,30.0,23.0,29.92,ENE,66,6.0,10.0,75,0.00,,,0.01,,2013-04-11 13:12:00,
2013-04-11 08:23:00,30.0,23.0,29.92,ENE,66,6.0,10.0,75,0.00,,,0.01,,2013-04-11 13:23:00,
2013-04-11 08:32:00,30.0,22.0,29.92,East,79,9.0,11.0,73,0.00,,,0.01,,2013-04-11 13:32:00,
2013-04-11 08:43:00,30.0,22.0,29.92,East,79,9.0,11.0,73,0.00,,,0.01,,2013-04-11 13:43:00,
2013-04-11 08:54:00,30.0,23.0,29.92,ENE,62,8.0,11.0,74,0.00,,,0.01,,2013-04-11 13:54:00,
2013-04-11 09:02:00,30.0,23.0,29.92,ENE,69,6.0,16.0,74,0.00,,,0.01,,2013-04-11 14:02:00,
2013-04-11 09:12:00,30.0,23.0,29.92,ENE,69,6.0,16.0,74,0.00,,,0.01,,2013-04-11 14:12:00,
2013-04-11 09:22:00,30.0,23.0,29.92,ENE,70,7.0,10.0,74,0.00,,,0.01,,2013-04-11 14:22:00,
2013-04-11 09:32:00,30.0,22.0,29.93,ENE,78,7.0,9.0,73,0.00,,,0.01,,2013-04-11 14:32:00,
2013-04-11 09:42:00,30.0,22.0,29.93,ENE,78,7.0,9.0,73,0.00,,,0.01,,2013-04-11 14:42:00,
2013-04-11 09:52:00,30.0,22.0,29.93,East,87,7.0,14.0,72,0.00,,,0.01,,2013-04-11 14:52:00,
2013-04-11 10:02:00,31.0,23.0,29.93,ENE,76,10.0,12.0,72,0.00,,,0.01,,2013-04-11 15:02:00,
2013-04-11 10:12:00,31.0,23.0,29.93,ENE,76,10.0,12.0,72,0.00,,,0.01,,2013-04-11 15:12:00,
2013-04-11 10:22:00,31.0,23.0,29.93,East,79,7.0,11.0,71,0.00,,,0.01,,2013-04-11 15:22:00,
2013-04-11 10:32:00,31.0,22.0,29.93,ENE,72,9.0,11.0,70,0.00,,,0.01,,2013-04-11 15:32:00,
2013-04-11 10:43:00,31.0,22.0,29.93,ENE,72,9.0,11.0,70,0.00,,,0.01,,2013-04-11 15:43:00,
2013-04-11 10:53:00,31.0,22.0,29.93,East,82,8.0,11.0,70,0.00,,,0.01,,2013-04-11 15:53:00,
2013-04-11 11:02:00,31.0,22.0,29.93,East,80,10.0,14.0,68,0.00,,,0.01,,2013-04-11 16:02:00,
2013-04-11 11:12:00,31.0,22.0,29.93,East,80,10.0,14.0,68,0.00,,,0.01,,2013-04-11 16:12:00,
2013-04-11 11:23:00,31.0,22.0,29.94,ENE,75,8.0,11.0,68,0.00,,,0.01,,2013-04-11 16:23:00,
2013-04-11 11:32:00,31.0,22.0,29.94,East,86,8.0,10.0,69,0.00,,,0.01,,2013-04-11 16:32:00,
2013-04-11 11:42:00,31.0,22.0,29.94,East,86,8.0,10.0,69,0.00,,,0.01,,2013-04-11 16:42:00,
2013-04-11 11:53:00,31.0,22.0,29.95,East,86,8.0,11.0,69,0.00,,,0.01,,2013-04-11 16:53:00,
2013-04-11 12:02:00,30.0,25.0,29.95,East,93,9.0,14.0,80,0.00,,,0.01,,2013-04-11 17:02:00,
2013-04-11 12:12:00,30.0,25.0,29.95,East,93,9.0,14.0,80,0.00,,,0.01,,2013-04-11 17:12:00,
2013-04-11 12:23:00,28.0,24.0,29.95,ENE,68,5.0,8.0,86,0.00,,,0.01,,2013-04-11 17:23:00,
2013-04-11 12:32:00,30.0,24.0,29.95,East,82,10.0,12.0,78,0.00,,,0.01,,2013-04-11 17:32:00,
2013-04-11 12:42:00,30.0,24.0,29.95,East,82,10.0,12.0,78,0.00,,,0.01,,2013-04-11 17:42:00,
2013-04-11 12:53:00,30.0,24.0,29.94,ENE,57,7.0,10.0,78,0.00,,,0.01,,2013-04-11 17:53:00,
2013-04-11 13:02:00,30.0,23.0,29.94,ENE,78,6.0,10.0,74,0.00,,,0.01,,2013-04-11 18:02:00,
2013-04-11 13:13:00,30.0,23.0,29.94,ENE,78,6.0,10.0,74,0.00,,,0.01,,2013-04-11 18:13:00,
2013-04-11 13:23:00,31.0,22.0,29.93,East,79,11.0,14.0,70,0.00,,,0.01,,2013-04-11 18:23:00,
2013-04-11 13:33:00,32.0,24.0,29.93,NNE,30,4.0,7.0,73,0.00,,,0.01,,2013-04-11 18:33:00,
2013-04-11 13:42:00,32.0,24.0,29.93,NNE,30,4.0,7.0,73,0.00,,,0.01,,2013-04-11 18:42:00,
2013-04-11 13:53:00,32.0,24.0,29.92,NNE,21,4.0,9.0,71,0.00,,,0.01,,2013-04-11 18:53:00,
2013-04-11 14:03:00,32.0,24.0,29.93,ENE,62,7.0,10.0,71,0.00,,,0.01,,2013-04-11 19:03:00,
2013-04-11 14:14:00,32.0,24.0,29.93,ENE,62,7.0,10.0,71,0.00,,,0.01,,2013-04-11 19:14:00,
2013-04-11 14:22:00,31.0,23.0,29.93,East,89,8.0,13.0,73,0.00,,,0.01,,2013-04-11 19:22:00,
2013-04-11 14:32:00,28.0,24.0,29.93,East,79,9.0,14.0,86,0.00,,,0.01,,2013-04-11 19:32:00,
2013-04-11 14:43:00,28.0,24.0,29.93,East,79,9.0,14.0,86,0.00,,,0.01,,2013-04-11 19:43:00,
2013-04-11 14:53:00,28.0,26.0,29.93,ENE,64,7.0,12.0,92,0.00,,,0.01,,2013-04-11 19:53:00,
2013-04-11 15:02:00,28.0,26.0,29.92,ENE,62,6.0,10.0,92,0.00,,,0.01,,2013-04-11 20:02:00,
2013-04-11 15:13:00,28.0,26.0,29.92,ENE,62,6.0,10.0,92,0.00,,,0.01,,2013-04-11 20:13:00,
2013-04-11 15:22:00,28.0,26.0,29.92,ENE,60,5.0,10.0,92,0.00,,,0.01,,2013-04-11 20:22:00,
2013-04-11 15:33:00,28.0,26.0,29.92,NNE,33,5.0,8.0,91,0.00,,,0.01,,2013-04-11 20:33:00,
2013-04-11 15:42:00,28.0,26.0,29.92,NNE,33,5.0,8.0,91,0.00,,,0.01,,2013-04-11 20:42:00,
2013-04-11 15:52:00,29.0,26.0,29.92,NE,53,7.0,10.0,90,0.00,,,0.01,,2013-04-11 20:52:00,
2013-04-11 16:02:00,28.0,25.0,29.91,ENE,67,8.0,11.0,90,0.00,,,0.01,,2013-04-11 21:02:00,
2013-04-11 16:12:00,28.0,25.0,29.91,ENE,67,8.0,11.0,90,0.00,,,0.01,,2013-04-11 21:12:00,
2013-04-11 16:22:00,28.0,26.0,29.91,NE,37,6.0,14.0,92,0.00,,,0.01,,2013-04-11 21:22:00,
2013-04-11 16:33:00,28.0,26.0,29.91,NE,53,5.0,10.0,91,0.00,,,0.01,,2013-04-11 21:33:00,
2013-04-11 16:42:00,28.0,26.0,29.91,NE,53,5.0,10.0,91,0.00,,,0.01,,2013-04-11 21:42:00,
2013-04-11 16:54:00,28.0,25.0,29.91,NE,49,5.0,13.0,90,0.00,,,0.01,,2013-04-11 21:54:00,
2013-04-11 17:03:00,28.0,25.0,29.91,NE,44,6.0,13.0,89,0.00,,,0.01,,2013-04-11 22:03:00,
2013-04-11 17:13:00,28.0,25.0,29.91,NE,44,6.0,13.0,89,0.00,,,0.01,,2013-04-11 22:13:00,
2013-04-11 17:23:00,28.0,25.0,29.91,NNE,23,6.0,12.0,90,0.00,,,0.00,,2013-04-11 22:23:00,
2013-04-11 17:33:00,28.0,26.0,29.92,NNE,21,5.0,10.0,91,0.00,,,0.00,,2013-04-11 22:33:00,
2013-04-11 17:44:00,28.0,26.0,29.92,NNE,21,5.0,10.0,91,0.00,,,0.00,,2013-04-11 22:44:00,
2013-04-11 17:53:00,28.0,26.0,29.92,ENE,60,4.0,8.0,91,0.00,,,0.00,,2013-04-11 22:53:00,
2013-04-11 18:03:00,28.0,26.0,29.91,NNE,32,5.0,8.0,91,0.00,,,0.00,,2013-04-11 23:03:00,
2013-04-11 18:12:00,28.0,26.0,29.91,NNE,32,5.0,8.0,91,0.00,,,0.00,,2013-04-11 23:12:00,
2013-04-11 18:23:00,28.0,26.0,29.91,East,79,4.0,8.0,91,0.00,,,0.00,,2013-04-11 23:23:00,
2013-04-11 18:32:00,28.0,26.0,29.92,ENE,71,4.0,8.0,91,0.00,,,0.00,,2013-04-11 23:32:00,
2013-04-11 18:42:00,28.0,26.0,29.92,ENE,71,4.0,8.0,91,0.00,,,0.00,,2013-04-11 23:42:00,
2013-04-11 18:53:00,28.0,26.0,29.92,NE,42,5.0,9.0,91,0.00,,,0.00,,2013-04-11 23:53:00,
2013-04-11 19:02:00,28.0,26.0,29.92,NE,43,5.0,9.0,92,0.00,,,0.00,,2013-04-12 00:02:00,
2013-04-11 19:12:00,28.0,26.0,29.92,NE,43,5.0,9.0,92,0.00,,,0.00,,2013-04-12 00:12:00,
2013-04-11 19:22:00,28.0,26.0,29.92,ENE,65,5.0,8.0,92,0.00,,,0.00,,2013-04-12 00:22:00,
2013-04-11 19:32:00,28.0,26.0,29.91,NE,44,6.0,10.0,92,0.00,,,0.00,,2013-04-12 00:32:00,
2013-04-11 19:42:00,28.0,26.0,29.91,NE,44,6.0,10.0,92,0.00,,,0.00,,2013-04-12 00:42:00,
2013-04-11 19:53:00,28.0,26.0,29.91,NE,37,5.0,8.0,93,0.00,,,0.00,,2013-04-12 00:53:00,
2013-04-11 20:02:00,28.0,26.0,29.91,ENE,62,4.0,9.0,93,0.00,,,0.00,,2013-04-12 01:02:00,
2013-04-11 20:12:00,28.0,26.0,29.91,ENE,62,4.0,9.0,93,0.00,,,0.00,,2013-04-12 01:12:00,
2013-04-11 20:22:00,28.0,26.0,29.91,NE,52,3.0,8.0,93,0.00,,,0.00,,2013-04-12 01:22:00,
2013-04-11 20:32:00,27.0,25.0,29.91,ENE,60,3.0,7.0,93,0.00,,,0.00,,2013-04-12 01:32:00,
2013-04-11 20:52:00,28.0,26.0,29.91,NE,52,3.0,6.0,93,0.00,,,0.00,,2013-04-12 01:52:00,
2013-04-11 21:03:00,28.0,26.0,29.91,NE,51,3.0,7.0,93,0.00,,,0.00,,2013-04-12 02:03:00,
2013-04-11 21:12:00,28.0,26.0,29.91,NE,51,3.0,7.0,93,0.00,,,0.00,,2013-04-12 02:12:00,
2013-04-11 21:22:00,28.0,26.0,29.91,ENE,61,2.0,7.0,93,0.00,,,0.00,,2013-04-12 02:22:00,
2013-04-11 21:32:00,28.0,26.0,29.91,ENE,60,3.0,7.0,93,0.00,,,0.00,,2013-04-12 02:32:00,
2013-04-11 21:42:00,28.0,26.0,29.91,ENE,60,3.0,7.0,93,0.00,,,0.00,,2013-04-12 02:42:00,
2013-04-11 21:52:00,28.0,26.0,29.90,ENE,57,2.0,8.0,93,0.00,,,0.00,,2013-04-12 02:52:00,
2013-04-11 22:02:00,28.0,26.0,29.90,ENE,62,3.0,6.0,93,0.00,,,0.00,,2013-04-12 03:02:00,
2013-04-11 22:12:00,28.0,26.0,29.90,ENE,62,3.0,6.0,93,0.00,,,0.00,,2013-04-12 03:12:00,
2013-04-11 22:22:00,28.0,26.0,29.91,ENE,61,5.0,8.0,93,0.00,,,0.00,,2013-04-12 03:22:00,
2013-04-11 22:33:00,28.0,25.0,29.90,ENE,69,6.0,9.0,90,0.00,,,0.00,,2013-04-12 03:33:00,
2013-04-11 22:43:00,28.0,25.0,29.90,ENE,69,6.0,9.0,90,0.00,,,0.00,,2013-04-12 03:43:00,
2013-04-11 22:53:00,28.0,25.0,29.90,ENE,62,7.0,11.0,90,0.00,,,0.00,,2013-04-12 03:53:00,
2013-04-11 23:03:00,28.0,26.0,29.90,ENE,70,6.0,10.0,91,0.00,,,0.00,,2013-04-12 04:03:00,
2013-04-11 23:13:00,28.0,26.0,29.90,ENE,70,6.0,10.0,91,0.00,,,0.00,,2013-04-12 04:13:00,
2013-04-11 23:23:00,28.0,26.0,29.91,NE,56,2.0,6.0,92,0.00,,,0.00,,2013-04-12 04:23:00,
2013-04-11 23:33:00,28.0,26.0,29.91,NE,46,4.0,8.0,92,0.00,,,0.00,,2013-04-12 04:33:00,
2013-04-11 23:43:00,28.0,26.0,29.91,NE,46,4.0,8.0,92,0.00,,,0.00,,2013-04-12 04:43:00,
2013-04-11 23:53:00,28.0,26.0,29.91,ENE,58,3.0,5.0,92,0.00,,,0.00,,2013-04-12 04:53:00,